Regional Weather Roundup
Issued by NWS State College, PA

Home | Current Version | Previous Version | Graphics & Text | Print | Product List | Glossary Off
Versions: 1 2 3 4 5 6 7 8 9 10 11 12 13 14 15 16 17 18 19 20 21 22 23 24 25 26 27 28 29 30 31 32 33 34 35 36 37 38 39 40 41 42 43 44 45 46 47 48 49 50

000
ASUS41 KCTP 012110
RWRCTP

REGIONAL WEATHER ROUNDUP
NATIONAL WEATHER SERVICE STATE COLLEGE PA
500 PM EDT MON SEP 01 2014

Note: "fair" indicates few or no clouds below 12,000 feet with no
significant weather and/or obstructions to visibility.

* = STATION THAT DOES NOT REPORT PRECIPITATION /E.G. RAIN...SNOW...ETC/
    THUNDER OR FOG.

PAZ002>004-007>009-013>016-020>023-029>032-012200-
WESTERN PENNSYLVANIA

CITY           SKY/WX    TMP DP  RH WIND       PRES   REMARKS
ERIE           MOSUNNY   84  66  54 SW14G23   29.87S
MEADVILLE      MOSUNNY   81  66  60 S12G20    29.93S
FRANKLIN*      MOSUNNY   81  66  61 SW9G16    29.96S
NEW CASTLE     FAIR      83  71  66 S9G17     29.94S
BEAVER COUNTY  NOT AVBL
BUTLER*        PTSUNNY   79  68  69 SW12      29.97F
PITTSBURGH INT PTSUNNY   76  72  87 S5        29.96F
PITTSBURGH     PTSUNNY   78  69  73 S7        29.96F
INDIANA*       PTSUNNY   81  70  69 SW7       30.01S
LATROBE        PTSUNNY   81  72  74 SW9       29.98F
WASHINGTON CO* PTSUNNY   79  72  78 SW5       29.98S
$$

PAZ004>006-010>012-017>019-024>028-033>037-041-042-045-046-049>053-012200-
CENTRAL PENNSYLVANIA

CITY           SKY/WX    TMP DP  RH WIND       PRES   REMARKS
BRADFORD       PTSUNNY   76  66  71 VRB6      29.98F
DUBOIS         MOSUNNY   78  69  73 SW12      29.97F
CLEARFIELD     MOSUNNY   79  69  71 SW8       29.98F
JOHNSTOWN      SUNNY     78  64  61 W13G20    30.03S
ALTOONA        MOSUNNY   81  71  71 SW5       29.99F
STATE COLLEGE  PTSUNNY   79  72  78 S3        29.97F
WILLIAMSPORT   MOSUNNY   83  69  62 CALM      29.93F
SELINSGROVE    CLOUDY    84  71  65 CALM      29.94F
FT INDIANTOWN  MOSUNNY   85  71  64 SW7       29.95F
CAPITAL CITY   MOSUNNY   83  71  67 S5        29.94F
HARRISBURG     PTSUNNY   83  75  77 CALM      29.94S
YORK           LGT RAIN  85  75  72 W7        29.95F
$$

PAZ038>040-043-044-047-048-054-055-060>062-067>071-012200-
EASTERN PENNSYLVANIA

CITY           SKY/WX    TMP DP  RH WIND       PRES   REMARKS
SCRANTON       CLOUDY    83  67  58 W7        29.95F
MOUNT POCONO   CLOUDY    79  67  66 W8        30.02F
ALLENTOWN      CLOUDY    86  69  56 W8        29.95F
QUAKERTOWN*    MOCLDY    84  72  65 MISG      29.97S
READING        MOSUNNY   87  70  56 SW6       29.94F
LANCASTER      MOSUNNY   86  69  56 CALM      29.95F
COATESVILLE    PTCLDY    84  79  84 SW3       29.98S HX  96
POTTSTOWN      PTSUNNY   85  71  63 SW5       29.96F
BLUE BELL      MOSUNNY   90  72  55 W6        29.94F HX  96
DOYLESTOWN     PTSUNNY   86  70  58 SW5       29.94F
WILLOW GROVE   NOT AVBL
NORTH PHILA    MOSUNNY   83  72  69 CALM      29.95F
PHILADELPHIA   MOSUNNY   89  70  53 SW9       29.94F
$$


USA.gov is the U.S. government's official web portal to all federal, state and local government web resources and services.